| time (UTC) | temp C | wind direction | speed KPH | gust KPH | rain 1hr cm | rain 24hr cm | rain mn cm | humidity % | barometer mb |
| 20260506113003 | 10 | 168 | 3.2 | 6.4 | 0.00 | 0.03 | 0.00 | 62 | 1007.8 |
| 20260506112003 | 10 | 187 | 3.2 | 11.3 | 0.00 | 0.03 | 0.00 | 63 | 1007.8 |
| 20260506111003 | 10 | 111 | 4.8 | 11.3 | 0.00 | 0.03 | 0.00 | 61 | 1007.6 |
| 20260506110003 | 11 | 98 | 3.2 | 11.3 | 0.00 | 0.03 | 0.00 | 56 | 1007.5 |
| 20260506104003 | 11 | 243 | 3.2 | 8.0 | 0.00 | 0.03 | 0.00 | 47 | 1007.3 |
| 20260506103003 | 11 | 301 | 3.2 | 8.0 | 0.00 | 0.03 | 0.00 | 47 | 1007.3 |
| 20260506102002 | 12 | 236 | 3.2 | 12.9 | 0.00 | 0.03 | 0.00 | 45 | 1007.2 |
| 20260506101003 | 11 | 235 | 4.8 | 11.3 | 0.00 | 0.03 | 0.00 | 49 | 1007.2 |
| 20260506100003 | 13 | 274 | 3.2 | 11.3 | 0.00 | 0.03 | 0.00 | 43 | 1007.0 |
| 20260506095003 | 13 | 297 | 3.2 | 11.3 | 0.00 | 0.03 | 0.00 | 44 | 1006.9 |
| 20260506094003 | 12 | 277 | 3.2 | 11.3 | 0.00 | 0.03 | 0.00 | 46 | 1006.9 |
| 20260506093003 | 12 | 313 | 3.2 | 11.3 | 0.00 | 0.03 | 0.00 | 49 | 1006.9 |
| 20260506092003 | 11 | 296 | 3.2 | 12.9 | 0.00 | 0.03 | 0.00 | 50 | 1006.8 |
| 20260506091003 | 10 | 275 | 3.2 | 12.9 | 0.00 | 0.03 | 0.00 | 54 | 1006.8 |
| 20260506090003 | 10 | 298 | 3.2 | 14.5 | 0.00 | 0.03 | 0.00 | 55 | 1006.8 |
| 20260506085003 | 9 | 282 | 3.2 | 12.9 | 0.00 | 0.03 | 0.00 | 58 | 1006.7 |
| 20260506084003 | 9 | 276 | 3.2 | 12.9 | 0.00 | 0.03 | 0.00 | 57 | 1006.6 |
| 20260506083003 | 9 | 254 | 3.2 | 14.5 | 0.00 | 0.03 | 0.00 | 58 | 1006.5 |
| 20260506082003 | 9 | 249 | 3.2 | 12.9 | 0.00 | 0.03 | 0.00 | 58 | 1006.4 |
| 20260506073003 | 8 | 277 | 3.2 | 12.9 | 0.00 | 0.03 | 0.00 | 61 | 1005.8 |
| 20260506062003 | 6 | 295 | 3.2 | 12.9 | 0.00 | 0.03 | 0.00 | 65 | 1004.9 |
| 20260506061003 | 6 | 291 | 3.2 | 11.3 | 0.00 | 0.03 | 0.00 | 67 | 1004.8 |
| 20260506051003 | 3 | 276 | 3.2 | 11.3 | 0.00 | 0.03 | 0.00 | 76 | 1004.4 |
| 20260506044003 | 2 | 263 | 3.2 | 11.3 | 0.00 | 0.03 | 0.00 | 76 | 1004.2 |
| 20260506043004 | 2 | 264 | 1.6 | 12.9 | 0.00 | 0.03 | 0.00 | 77 | 1004.1 |
| 20260506042003 | 2 | 278 | 1.6 | 6.4 | 0.00 | 0.03 | 0.00 | 77 | 1004.1 |
| 20260506041004 | 2 | 287 | 3.2 | 8.0 | 0.00 | 0.03 | 0.00 | 78 | 1003.9 |
| 20260506040004 | 2 | 274 | 3.2 | 14.5 | 0.00 | 0.03 | 0.00 | 77 | 1003.9 |
| 20260506034003 | 2 | 288 | 1.6 | 6.4 | 0.00 | 0.03 | 0.00 | 78 | 1003.7 |
| 20260506033004 | 2 | 308 | 1.6 | 6.4 | 0.00 | 0.03 | 0.00 | 78 | 1003.7 |
| 20260506032003 | 2 | 304 | 3.2 | 11.3 | 0.00 | 0.03 | 0.00 | 78 | 1003.6 |
| 20260506031003 | 2 | 297 | 3.2 | 11.3 | 0.00 | 0.03 | 0.00 | 78 | 1003.3 |
| 20260506030006 | 1 | 270 | 3.2 | 8.0 | 0.00 | 0.03 | 0.00 | 79 | 1003.5 |
| 20260506025004 | 1 | 274 | 3.2 | 11.3 | 0.00 | 0.03 | 0.00 | 78 | 1003.3 |
| 20260506024003 | 1 | 279 | 3.2 | 12.9 | 0.00 | 0.03 | 0.00 | 78 | 1003.2 |
| 20260506022003 | 1 | 293 | 3.2 | 11.3 | 0.00 | 0.03 | 0.00 | 78 | 1003.2 |
| 20260506020004 | 1 | 277 | 3.2 | 11.3 | 0.00 | 0.03 | 0.00 | 77 | 1003.2 |
| 20260506015004 | 1 | 285 | 3.2 | 12.9 | 0.00 | 0.03 | 0.00 | 77 | 1003.1 |
| 20260506014003 | 1 | 261 | 3.2 | 12.9 | 0.00 | 0.03 | 0.00 | 77 | 1002.9 |
| 20260506012004 | 1 | 255 | 1.6 | 8.0 | 0.00 | 0.03 | 0.00 | 76 | 1002.7 |
| 20260506011003 | 1 | 271 | 4.8 | 11.3 | 0.00 | 0.03 | 0.00 | 75 | 1002.8 |
| 20260506004003 | 1 | 256 | 1.6 | 6.4 | 0.00 | 0.03 | 0.00 | 74 | 1002.5 |
| 20260506003004 | 1 | 265 | 3.2 | 11.3 | 0.00 | 0.03 | 0.00 | 74 | 1002.4 |
| 20260506002004 | 1 | 312 | 1.6 | 6.4 | 0.00 | 0.03 | 0.00 | 73 | 1002.5 |
| 20260506001003 | 1 | 279 | 1.6 | 4.8 | 0.00 | 0.03 | 0.00 | 73 | 1002.3 |
| 20260506000004 | 1 | 293 | 1.6 | 6.4 | 0.00 | 0.03 | 0.00 | 73 | 1002.3 |
| 20260505234003 | 1 | 302 | 1.6 | 6.4 | 0.00 | 0.03 | 0.00 | 73 | 1002.3 |
| 20260505233005 | 1 | 302 | 1.6 | 6.4 | 0.00 | 0.03 | 0.00 | 74 | 1002.2 |
| 20260505232002 | 1 | 270 | 1.6 | 4.8 | 0.00 | 0.03 | 0.00 | 73 | 1002.3 |
| 20260505231002 | 1 | 252 | 1.6 | 6.4 | 0.00 | 0.03 | 0.00 | 72 | 1002.2 |
| 20260505224002 | 2 | 255 | 1.6 | 6.4 | 0.00 | 0.03 | 0.00 | 71 | 1002.2 |
| 20260505223003 | 2 | 262 | 1.6 | 4.8 | 0.00 | 0.03 | 0.00 | 71 | 1002.2 |
| 20260505222002 | 2 | 291 | 1.6 | 4.8 | 0.00 | 0.03 | 0.00 | 72 | 1002.1 |
| 20260505221002 | 2 | 314 | 1.6 | 4.8 | 0.00 | 0.03 | 0.00 | 71 | 1002.1 |
| 20260505220005 | 2 | 315 | 1.6 | 4.8 | 0.00 | 0.03 | 0.00 | 72 | 1002.1 |
| 20260505215002 | 2 | 306 | 1.6 | 6.4 | 0.00 | 0.03 | 0.03 | 70 | 1002.0 |
| 20260505214002 | 2 | 324 | 1.6 | 4.8 | 0.00 | 0.03 | 0.03 | 70 | 1001.9 |
| 20260505213002 | 2 | 314 | 1.6 | 4.8 | 0.00 | 0.03 | 0.03 | 69 | 1001.9 |
| 20260505212002 | 2 | 315 | 0.0 | 1.6 | 0.00 | 0.03 | 0.03 | 68 | 1001.8 |
| 20260505211002 | 2 | 300 | 0.0 | 4.8 | 0.00 | 0.03 | 0.03 | 68 | 1001.8 |
| 20260505210003 | 2 | 315 | 0.0 | 1.6 | 0.00 | 0.03 | 0.03 | 66 | 1001.7 |
| 20260505205002 | 2 | 314 | 0.0 | 1.6 | 0.00 | 0.03 | 0.03 | 64 | 1001.7 |
| 20260505204002 | 3 | 305 | 0.0 | 4.8 | 0.00 | 0.03 | 0.03 | 62 | 1001.5 |
| 20260505203003 | 3 | 303 | 0.0 | 4.8 | 0.00 | 0.03 | 0.03 | 61 | 1001.5 |
| 20260505202002 | 4 | 270 | 1.6 | 6.4 | 0.00 | 0.03 | 0.03 | 59 | 1001.4 |
| 20260505201002 | 4 | 278 | 1.6 | 6.4 | 0.00 | 0.03 | 0.03 | 59 | 1001.3 |
| 20260505200003 | 5 | 245 | 3.2 | 11.3 | 0.00 | 0.03 | 0.03 | 58 | 1001.2 |
| 20260505194002 | 5 | 270 | 0.0 | 6.4 | 0.00 | 0.03 | 0.03 | 57 | 1001.1 |
| 20260505193004 | 5 | 276 | 0.0 | 4.8 | 0.00 | 0.03 | 0.03 | 56 | 1001.0 |
| 20260505192002 | 5 | 281 | 1.6 | 6.4 | 0.00 | 0.03 | 0.03 | 54 | 1001.0 |
| 20260505191002 | 6 | 266 | 3.2 | 11.3 | 0.00 | 0.03 | 0.03 | 53 | 1000.8 |
| 20260505190004 | 6 | 259 | 3.2 | 11.3 | 0.00 | 0.05 | 0.03 | 53 | 1000.9 |
| 20260505185002 | 6 | 240 | 3.2 | 12.9 | 0.00 | 0.05 | 0.03 | 52 | 1000.7 |
| 20260505184003 | 6 | 247 | 3.2 | 8.0 | 0.00 | 0.05 | 0.03 | 50 | 1000.6 |
| 20260505183003 | 6 | 259 | 1.6 | 6.4 | 0.00 | 0.05 | 0.03 | 48 | 1000.5 |
| 20260505182002 | 7 | 268 | 1.6 | 12.9 | 0.00 | 0.05 | 0.03 | 46 | 1000.4 |
| 20260505181002 | 7 | 268 | 3.2 | 14.5 | 0.00 | 0.05 | 0.03 | 45 | 1000.4 |
| 20260505180004 | 7 | 274 | 3.2 | 14.5 | 0.00 | 0.05 | 0.03 | 43 | 1000.4 |
| 20260505175003 | 8 | 285 | 3.2 | 11.3 | 0.00 | 0.05 | 0.03 | 42 | 1000.3 |
| 20260505174002 | 8 | 300 | 3.2 | 20.9 | 0.00 | 0.05 | 0.03 | 41 | 1000.2 |
| 20260505173003 | 8 | 273 | 3.2 | 24.1 | 0.00 | 0.05 | 0.03 | 43 | 1000.2 |
| 20260505172002 | 8 | 289 | 4.8 | 19.3 | 0.00 | 0.05 | 0.03 | 45 | 1000.0 |
| 20260505171003 | 8 | 312 | 3.2 | 11.3 | 0.00 | 0.05 | 0.03 | 45 | 1000.1 |
| 20260505170003 | 8 | 289 | 4.8 | 20.9 | 0.00 | 0.05 | 0.03 | 46 | 1000.1 |
| 20260505165002 | 7 | 280 | 4.8 | 17.7 | 0.00 | 0.05 | 0.03 | 46 | 1000.1 |
| 20260505164003 | 7 | 336 | 8.0 | 27.4 | 0.00 | 0.05 | 0.03 | 48 | 999.9 |
| 20260505162002 | 8 | 291 | 3.2 | 14.5 | 0.00 | 0.05 | 0.03 | 42 | 999.8 |
| 20260505153003 | 12 | 308 | 4.8 | 17.7 | 0.00 | 0.05 | 0.03 | 35 | 999.4 |
| 20260505152003 | 12 | 293 | 4.8 | 32.2 | 0.00 | 0.05 | 0.03 | 34 | 999.3 |
| 20260505151003 | 12 | 280 | 6.4 | 32.2 | 0.00 | 0.05 | 0.03 | 27 | 999.0 |
| 20260505125003 | 13 | 328 | 6.4 | 24.1 | 0.00 | 0.03 | 0.00 | 33 | 998.1 |
| 20260505124002 | 13 | 287 | 6.4 | 17.7 | 0.00 | 0.03 | 0.00 | 32 | 998.0 |
| 20260505123003 | 12 | 313 | 4.8 | 20.9 | 0.00 | 0.03 | 0.00 | 33 | 998.0 |
| 20260505122003 | 11 | 292 | 4.8 | 14.5 | 0.00 | 0.03 | 0.00 | 32 | 997.9 |
| 20260505121002 | 12 | 305 | 4.8 | 20.9 | 0.00 | 0.03 | 0.00 | 31 | 997.8 |
| 20260505120003 | 12 | 281 | 4.8 | 14.5 | 0.00 | 0.03 | 0.00 | 33 | 997.7 |
| 20260505115003 | 11 | 298 | 6.4 | 24.1 | 0.00 | 0.03 | 0.00 | 36 | 997.7 |